sat.trackr.live / text

‹ back to catalog

STARLINK-33919

NORAD 63699 · 2025-087C

PAYLOAD ACTIVE UNKNOWN

§ Identity

Operator
Country
US
Launch date
2025-04-28
Launch site
AFWTR
Launch vehicle
Mass (kg)
RCS (m²)

Purposes: comms

External: N2YO · Heavens-Above · Gunter

§ Orbital elements

Epoch: 2026-05-24T15:28:44.264928Z

Period
94.11 min
Inclination
53.1580°
Eccentricity
0.0000968
Mean motion
15.30193420 rev/d
Perigee alt
474.6 km
Apogee alt
475.9 km
Semi-major
6,853.4 km
B*
5.6819e-4
RAAN
227.1120°
Arg perigee
77.2234°
Mean anomaly
282.8875°
Rev number
6,082

§ Raw data

STARLINK-339191 63699U 25087C   26144.64495677  .00016503  00000+0  56819-3 0  99962 63699  53.1580 227.1120 0000968  77.2234 282.8875 15.30193420 60824

JSON: /api/v1/satellites/63699 · /tle

For live sub-satellite position, see the globe view (requires WebGL).

§ Visibility from observer

Set your observer location to see the next 7 days of passes ≥ 10°. The values pass through the URL so the page stays shareable.

No JS? Fill the form by hand. The geolocation button needs JavaScript.